STARLINK-30303, 57677

Orbit data source: Space-Track

STARLINK-30303, 57677 is a payload satellite owned by SpaceX/Seattle (US) in LEO that was launched on Tue, 22 Aug 2023 UTC via an FALCON 9 launch vehicle from the Air Force Western Test Range (AFWTR). Payload-class satellites include a variety of spacecraft equipped with specific instruments for various scientific and technological missions. These include communications satellites like Starlink; space stations such as the ISS; scientific satellites like the Hubble; Earth observation satellites from companies like Planet Labs, Umbra, and HawkEye 360; GPS; miniature CubeSats for education and research; and military/defense satellites.

Loading next visibility...
Identifier
57677, 2023-124Q
Orbit
LEO
Country
Flag of USUS
Related business
Manufacturer
SpaceX/Seattle
Mission
Operational Commercial Communications
Bus & Motor
STARLINK V2M, Unknown motor
Mass
730 kg wet, ~700 kg dry
Launch date (UTC)
2023-08-22 (3 years ago)
Launch vehicle
FALCON 9
Launch site
Air Force Western Test Range (AFWTR)
Object type
Payload
Rocket body
Debris
Shape & HBR
Box + 2 Pan, 17.7 m
Radar Cross Section
33.884 m², Large (>1 m²)

Expand to show TLE details & history
Last TLE update: 3 days ago

TLE from 3 days ago
0 STARLINK-30303
1 57677U 23124Q   26170.52159318  .00001442  00000-0  60817-4 0  9991
2 57677  53.1606  93.4784 0001416  86.1463 273.9699 15.30190966159167
Epoch: 2026-06-19T12:31Z
TLE epoch observation values (Epoch: 2026-06-19T12:31:05.650Z)
Latitude
-0.00009°
Longitude
-2.04458°
Altitude
476.075 km
Speed
7.629 km/s
True Right ascension
06h 13m 54s
True Declination
0° 00' 00"
Sunlit
Object was in daylight at epoch
Visualization orbit readout
Latitude
Unknown
Longitude
Unknown
Altitude
Unknown
Speed
Unknown
Apparent Right ascension
Unknown
Apparent Declination
Unknown
Sunlit
N/A
Visualization observer readout
Local Sidereal Time
23:08:19
Azimuth
Unknown
Elevation
Unknown
Doppler factor
Unknown
Orbital elements
Apogee altitude
476.469 km
Perigee altitude
474.528 km
Semi-major axis
6,853.635 km
Eccentricity
0.00014
Inclination
53.1606°
RAAN
93.4784°
Arg. of periapsis
86.1463°
True anomaly
273.95371°
Mean anomaly
273.9699°
Eccentric anomaly
273.96181°
Mean motion
3.82527 °/min
Orbital period
94.11 mins
BSTAR
0.000060817
Loading maneuver chart data...
Computing Atmospheric mass density...
Loading historical data...
Loading historical data...
Loading historical data...
Loading historical data...
Loading historical data...
Loading historical data...
Loading historical data...

Documentation

Showing up to 5 results
|